Starlink 5562

operational
NORAD ID: 56336 Int'l Des: 2023-058 Owner: SPXS Country: US Constellation: starlink
LEOCIRCULARRETROGRADESSO

关于 Starlink 5562

正在加载描述...

实时位置

正在加载3D地球...

即将过境

高度历史

Altitude vs Time

uPlot chart will show altitude changes over time

两行轨道根数

1 56336U 23058V 25304.75102520 .00002101 00000-0 16813-3 0 9993
2 56336 97.6026 303.9566 0002650 87.2146 272.9382 15.01250869138785
Epoch: Oct 31, 2025 • Age: 10 hours

当前状态

高度 565.6 km
速度 7.58 km/s
星下点 25.86°N, 22.76°E
发射日期 Apr 27, 2023
运行时间 2.5 years
类型 internet

技术详情

分类 Payload
质量 300.00 kg
干质量 260.00 kg
总质量 300.00 kg
长度 0.20 m
直径 2.80 m
跨度 9.00 m
形状 Box + pan
制造商 SPXS
平台类型 Starlink
阶段状态 In Orbit
所有者/国家 SPXS/US

大型星座

Loading constellations...